{"data":{"norad_id":62072,"epoch":"2026-05-24T13:07:06.632256Z","epoch_age_seconds":117315,"freshness":"FRESH","line1":"1 62072U 24217R   26144.54660454  .00443081  00000+0  13724-1 0  9991","line2":"2 62072  53.1592 201.6702 0001303 117.2014 242.9121 15.31076440 85088","mean_motion":15.3107644,"eccentricity":0.0001303,"inclination_deg":53.1592,"raan_deg":201.6702,"arg_perigee_deg":117.2014,"mean_anomaly_deg":242.9121,"bstar":0.013724,"rev_number":8508,"period_min":94.051476619939,"perigee_km":471.70677501306,"apogee_km":473.49207692567,"semimajor_km":6850.7364259694,"source":"CELESTRAK","updated_at":"2026-05-25T13:38:19.554444Z"}}